| time (UTC) | temp F | wind direction | speed MPH | gust MPH | rain 1hr in | rain 24hr in | rain mn in | humidity % | barometer mb |
| 20260503204401 | 60 | 309 | 9.0 | 11.0 | 0.00 | 0.00 | 0.00 | 31 | 1011.6 |
| 20260503203859 | 59 | 264 | 10.0 | 13.0 | 0.00 | 0.00 | 0.00 | 31 | 1011.6 |
| 20260503203356 | 60 | 323 | 7.0 | 11.0 | 0.00 | 0.00 | 0.00 | 32 | 1011.6 |
| 20260503202852 | 59 | 251 | 7.0 | 10.0 | 0.00 | 0.00 | 0.00 | 32 | 1011.8 |
| 20260503202351 | 59 | 302 | 6.0 | 9.0 | 0.00 | 0.00 | 0.00 | 33 | 1011.8 |
| 20260503201849 | 59 | 335 | 11.0 | 13.0 | 0.00 | 0.00 | 0.00 | 31 | 1011.8 |
| 20260503201345 | 59 | 331 | 7.0 | 8.0 | 0.00 | 0.00 | 0.00 | 30 | 1011.8 |
| 20260503200843 | 59 | 282 | 3.0 | 5.0 | 0.00 | 0.00 | 0.00 | 33 | 1011.8 |
| 20260503200338 | 58 | 315 | 10.0 | 16.0 | 0.00 | 0.00 | 0.00 | 33 | 1011.9 |
| 20260503195836 | 58 | 1 | 9.0 | 13.0 | 0.00 | 0.00 | 0.00 | 32 | 1012.0 |
| 20260503195332 | 59 | 350 | 8.0 | 11.0 | 0.00 | 0.00 | 0.00 | 31 | 1012.0 |
| 20260503194830 | 60 | 294 | 11.0 | 15.0 | 0.00 | 0.00 | 0.00 | 32 | 1012.2 |
| 20260503194326 | 60 | 238 | 1.0 | 2.0 | 0.00 | 0.00 | 0.00 | 32 | 1011.9 |
| 20260503193822 | 60 | 216 | 3.0 | 5.0 | 0.00 | 0.00 | 0.00 | 34 | 1012.0 |
| 20260503193318 | 59 | 338 | 4.0 | 5.0 | 0.00 | 0.00 | 0.00 | 32 | 1012.0 |
| 20260503192814 | 59 | 233 | 7.0 | 10.0 | 0.00 | 0.00 | 0.00 | 33 | 1012.3 |
| 20260503192310 | 59 | 232 | 8.0 | 9.0 | 0.00 | 0.00 | 0.00 | 33 | 1012.2 |
| 20260503191806 | 58 | 332 | 12.0 | 14.0 | 0.00 | 0.00 | 0.00 | 31 | 1012.2 |
| 20260503191303 | 58 | 354 | 3.0 | 6.0 | 0.00 | 0.00 | 0.00 | 36 | 1012.2 |
| 20260503190800 | 58 | 285 | 10.0 | 13.0 | 0.00 | 0.00 | 0.00 | 31 | 1012.2 |
| 20260503190257 | 58 | 328 | 11.0 | 15.0 | 0.00 | 0.00 | 0.00 | 34 | 1012.3 |
| 20260503185754 | 58 | 317 | 10.0 | 13.0 | 0.00 | 0.00 | 0.00 | 33 | 1012.3 |
| 20260503185250 | 58 | 323 | 9.0 | 13.0 | 0.00 | 0.00 | 0.00 | 35 | 1012.4 |
| 20260503184744 | 57 | 290 | 2.0 | 3.0 | 0.00 | 0.00 | 0.00 | 34 | 1012.7 |
| 20260503184241 | 58 | 245 | 6.0 | 8.0 | 0.00 | 0.00 | 0.00 | 37 | 1012.3 |
| 20260503183737 | 58 | 252 | 9.0 | 15.0 | 0.00 | 0.00 | 0.00 | 34 | 1012.5 |
| 20260503183235 | 58 | 318 | 14.0 | 20.0 | 0.00 | 0.00 | 0.00 | 33 | 1012.7 |
| 20260503182732 | 58 | 322 | 17.0 | 21.0 | 0.00 | 0.00 | 0.00 | 36 | 1012.7 |
| 20260503182231 | 57 | 300 | 5.0 | 7.0 | 0.00 | 0.00 | 0.00 | 37 | 1012.7 |
| 20260503181728 | 56 | 266 | 8.0 | 10.0 | 0.00 | 0.00 | 0.00 | 33 | 1012.7 |
| 20260503181225 | 57 | 320 | 11.0 | 15.0 | 0.00 | 0.00 | 0.00 | 35 | 1012.5 |
| 20260503180721 | 56 | 307 | 6.0 | 8.0 | 0.00 | 0.00 | 0.00 | 36 | 1012.7 |
| 20260503180219 | 56 | 288 | 5.0 | 7.0 | 0.00 | 0.00 | 0.00 | 36 | 1012.7 |
| 20260503175715 | 56 | 341 | 6.0 | 7.0 | 0.00 | 0.00 | 0.00 | 37 | 1012.8 |
| 20260503175214 | 56 | 347 | 16.0 | 21.0 | 0.00 | 0.00 | 0.00 | 35 | 1012.8 |
| 20260503174709 | 56 | 317 | 8.0 | 11.0 | 0.00 | 0.00 | 0.00 | 39 | 1012.9 |
| 20260503174207 | 54 | 307 | 5.0 | 7.0 | 0.00 | 0.00 | 0.00 | 41 | 1012.8 |
| 20260503173707 | 55 | 351 | 8.0 | 10.0 | 0.00 | 0.00 | 0.00 | 38 | 1013.1 |
| 20260503173204 | 54 | 278 | 8.0 | 9.0 | 0.00 | 0.00 | 0.00 | 41 | 1013.0 |
| 20260503172701 | 54 | 316 | 7.0 | 9.0 | 0.00 | 0.00 | 0.00 | 40 | 1012.9 |
| 20260503172158 | 54 | 298 | 5.0 | 6.0 | 0.00 | 0.00 | 0.00 | 42 | 1013.0 |
| 20260503171654 | 53 | 287 | 5.0 | 6.0 | 0.00 | 0.00 | 0.00 | 42 | 1013.3 |
| 20260503171152 | 55 | 311 | 13.0 | 15.0 | 0.00 | 0.00 | 0.00 | 40 | 1013.2 |
| 20260503170649 | 54 | 346 | 7.0 | 10.0 | 0.00 | 0.00 | 0.00 | 41 | 1013.2 |
| 20260503170145 | 53 | 343 | 3.0 | 5.0 | 0.00 | 0.00 | 0.00 | 43 | 1013.4 |
| 20260503160107 | 53 | 265 | 8.0 | 10.0 | 0.00 | 0.00 | 0.00 | 47 | 1013.6 |
| 20260503150537 | 49 | 297 | 5.0 | 8.0 | 0.00 | 0.00 | 0.00 | 47 | 1014.2 |
| 20260503130927 | 48 | 271 | 3.0 | 6.0 | 0.00 | 0.00 | 0.00 | 54 | 1013.9 |
| 20260503130424 | 48 | 267 | 6.0 | 8.0 | 0.00 | 0.00 | 0.00 | 56 | 1014.1 |
| 20260503110326 | 44 | 281 | 3.0 | 3.0 | 0.00 | 0.00 | 0.00 | 63 | 1013.3 |
| 20260503100252 | 44 | 350 | 5.0 | 7.0 | 0.00 | 0.00 | 0.00 | 60 | 1012.7 |
| 20260503090212 | 45 | 23 | 1.0 | 2.0 | 0.00 | 0.00 | 0.00 | 57 | 1012.2 |
| 20260503081138 | 45 | 268 | 0.0 | 0.0 | 0.00 | 0.00 | 0.00 | 59 | 1011.8 |
| 20260503080635 | 45 | 256 | 1.0 | 1.0 | 0.00 | 0.00 | 0.00 | 59 | 1011.9 |
| 20260503080132 | 46 | 267 | 0.0 | 0.0 | 0.00 | 0.00 | 0.00 | 58 | 1011.9 |
| 20260503072609 | 46 | 237 | 0.0 | 0.0 | 0.00 | 0.00 | 0.00 | 57 | 1011.7 |
| 20260503072106 | 47 | 314 | 2.0 | 2.0 | 0.00 | 0.00 | 0.00 | 58 | 1011.9 |
| 20260503071602 | 47 | 252 | 0.0 | 0.0 | 0.00 | 0.00 | 0.00 | 57 | 1011.7 |
| 20260503071059 | 47 | 320 | 4.0 | 5.0 | 0.00 | 0.00 | 0.00 | 56 | 1011.8 |
| 20260503070555 | 47 | 272 | 1.0 | 2.0 | 0.00 | 0.00 | 0.00 | 55 | 1011.7 |
| 20260503055014 | 47 | 212 | 0.0 | 0.0 | 0.00 | 0.00 | 0.00 | 59 | 1011.8 |
| 20260503054510 | 48 | 231 | 0.0 | 0.0 | 0.00 | 0.00 | 0.00 | 57 | 1012.0 |
| 20260503054008 | 48 | 234 | 0.0 | 0.0 | 0.00 | 0.00 | 0.00 | 55 | 1011.9 |
| 20260503053506 | 48 | 317 | 2.0 | 2.0 | 0.00 | 0.00 | 0.00 | 54 | 1012.1 |
| 20260503053003 | 48 | 260 | 0.0 | 1.0 | 0.00 | 0.00 | 0.00 | 54 | 1012.0 |
| 20260503052500 | 48 | 243 | 1.0 | 2.0 | 0.00 | 0.00 | 0.00 | 53 | 1012.0 |
| 20260503051956 | 48 | 6 | 1.0 | 2.0 | 0.00 | 0.00 | 0.00 | 55 | 1012.1 |
| 20260503051452 | 48 | 287 | 2.0 | 3.0 | 0.00 | 0.00 | 0.00 | 53 | 1012.1 |
| 20260503050949 | 48 | 291 | 2.0 | 2.0 | 0.00 | 0.00 | 0.00 | 53 | 1012.0 |
| 20260503050445 | 48 | 253 | 0.0 | 0.0 | 0.00 | 0.00 | 0.00 | 54 | 1012.3 |
| 20260503045943 | 49 | 275 | 1.0 | 1.0 | 0.00 | 0.00 | 0.00 | 52 | 1012.3 |
| 20260503045440 | 49 | 243 | 0.0 | 0.0 | 0.00 | 0.00 | 0.00 | 55 | 1012.1 |
| 20260503044937 | 48 | 283 | 1.0 | 2.0 | 0.00 | 0.00 | 0.00 | 53 | 1012.2 |
| 20260503044433 | 49 | 271 | 1.0 | 2.0 | 0.00 | 0.00 | 0.00 | 54 | 1012.2 |
| 20260503043931 | 49 | 313 | 1.0 | 2.0 | 0.00 | 0.00 | 0.00 | 54 | 1012.4 |
| 20260503043427 | 48 | 281 | 1.0 | 2.0 | 0.00 | 0.00 | 0.00 | 55 | 1012.4 |
| 20260503042924 | 48 | 311 | 1.0 | 2.0 | 0.00 | 0.00 | 0.00 | 56 | 1012.4 |
| 20260503042421 | 47 | 234 | 1.0 | 1.0 | 0.00 | 0.00 | 0.00 | 59 | 1012.5 |
| 20260503041917 | 46 | 241 | 0.0 | 0.0 | 0.00 | 0.00 | 0.00 | 64 | 1012.5 |
| 20260503041414 | 45 | 232 | 0.0 | 0.0 | 0.00 | 0.00 | 0.00 | 65 | 1012.5 |
| 20260503040912 | 44 | 241 | 0.0 | 0.0 | 0.00 | 0.00 | 0.00 | 69 | 1012.5 |
| 20260503040409 | 43 | 237 | 0.0 | 0.0 | 0.00 | 0.00 | 0.00 | 75 | 1012.6 |
| 20260503035906 | 42 | 234 | 0.0 | 0.0 | 0.00 | 0.00 | 0.00 | 77 | 1012.6 |
| 20260503035403 | 42 | 233 | 0.0 | 0.0 | 0.00 | 0.00 | 0.00 | 79 | 1012.4 |
| 20260503034900 | 42 | 233 | 0.0 | 0.0 | 0.00 | 0.00 | 0.00 | 79 | 1012.4 |
| 20260503034358 | 42 | 233 | 0.0 | 0.0 | 0.00 | 0.00 | 0.00 | 79 | 1012.6 |
| 20260503033854 | 43 | 231 | 0.0 | 0.0 | 0.00 | 0.00 | 0.00 | 79 | 1012.5 |
| 20260503033352 | 43 | 231 | 0.0 | 0.0 | 0.00 | 0.00 | 0.00 | 78 | 1012.4 |
| 20260503032850 | 43 | 230 | 0.0 | 0.0 | 0.00 | 0.00 | 0.00 | 79 | 1012.4 |
| 20260503032349 | 44 | 230 | 0.0 | 0.0 | 0.00 | 0.00 | 0.00 | 79 | 1012.5 |
| 20260503031846 | 44 | 225 | 0.0 | 0.0 | 0.00 | 0.00 | 0.00 | 77 | 1012.3 |
| 20260503031343 | 44 | 235 | 0.0 | 0.0 | 0.00 | 0.00 | 0.00 | 74 | 1012.2 |
| 20260503030839 | 44 | 235 | 0.0 | 0.0 | 0.00 | 0.00 | 0.00 | 72 | 1012.2 |
| 20260503030336 | 44 | 235 | 0.0 | 0.0 | 0.00 | 0.00 | 0.00 | 74 | 1012.5 |
| 20260503025833 | 45 | 240 | 0.0 | 0.0 | 0.00 | 0.00 | 0.00 | 73 | 1012.5 |
| 20260503025330 | 44 | 240 | 0.0 | 0.0 | 0.00 | 0.00 | 0.00 | 76 | 1012.4 |
| 20260503024827 | 44 | 237 | 0.0 | 0.0 | 0.00 | 0.00 | 0.00 | 75 | 1012.5 |
| 20260503024324 | 45 | 242 | 0.0 | 0.0 | 0.00 | 0.00 | 0.00 | 75 | 1012.8 |
| 20260503023820 | 45 | 235 | 0.0 | 0.0 | 0.00 | 0.00 | 0.00 | 74 | 1012.6 |
| 20260503023318 | 46 | 234 | 0.0 | 0.0 | 0.00 | 0.00 | 0.00 | 73 | 1012.6 |
| 20260503022815 | 46 | 237 | 0.0 | 0.0 | 0.00 | 0.00 | 0.00 | 74 | 1012.4 |
| 20260503022314 | 47 | 248 | 0.0 | 0.0 | 0.00 | 0.00 | 0.00 | 76 | 1012.5 |
| 20260503021811 | 47 | 252 | 0.0 | 1.0 | 0.00 | 0.00 | 0.00 | 73 | 1012.4 |
| 20260503021307 | 47 | 234 | 0.0 | 0.0 | 0.00 | 0.00 | 0.00 | 70 | 1012.5 |
| 20260503020805 | 47 | 234 | 0.0 | 0.0 | 0.00 | 0.00 | 0.00 | 68 | 1012.5 |
| 20260503020303 | 47 | 238 | 0.0 | 0.0 | 0.00 | 0.00 | 0.00 | 67 | 1012.4 |
| 20260503015758 | 47 | 234 | 0.0 | 0.0 | 0.00 | 0.00 | 0.00 | 69 | 1012.5 |
| 20260503015256 | 48 | 234 | 0.0 | 0.0 | 0.00 | 0.00 | 0.00 | 69 | 1012.3 |
| 20260503014751 | 48 | 234 | 0.0 | 0.0 | 0.00 | 0.00 | 0.00 | 68 | 1012.4 |
| 20260503014249 | 49 | 237 | 0.0 | 0.0 | 0.00 | 0.00 | 0.00 | 66 | 1012.5 |
| 20260503013746 | 49 | 242 | 0.0 | 0.0 | 0.00 | 0.00 | 0.00 | 69 | 1012.6 |
| 20260503013244 | 49 | 239 | 0.0 | 0.0 | 0.00 | 0.00 | 0.00 | 65 | 1012.5 |
| 20260503012741 | 48 | 245 | 0.0 | 0.0 | 0.00 | 0.00 | 0.00 | 64 | 1012.6 |
| 20260503012238 | 48 | 233 | 0.0 | 0.0 | 0.00 | 0.00 | 0.00 | 66 | 1012.5 |
| 20260503011735 | 48 | 233 | 0.0 | 0.0 | 0.00 | 0.00 | 0.00 | 68 | 1012.5 |
| 20260503011232 | 49 | 233 | 0.0 | 0.0 | 0.00 | 0.00 | 0.00 | 69 | 1012.4 |
| 20260503010728 | 49 | 234 | 0.0 | 0.0 | 0.00 | 0.00 | 0.00 | 68 | 1012.3 |
| 20260503010225 | 50 | 236 | 0.0 | 0.0 | 0.00 | 0.00 | 0.00 | 67 | 1012.4 |
| 20260503005723 | 50 | 234 | 0.0 | 0.0 | 0.00 | 0.00 | 0.00 | 64 | 1012.2 |
| 20260503005220 | 50 | 234 | 0.0 | 0.0 | 0.00 | 0.00 | 0.00 | 64 | 1012.2 |
| 20260503004716 | 50 | 242 | 0.0 | 0.0 | 0.00 | 0.00 | 0.00 | 62 | 1011.8 |
| 20260503004214 | 50 | 239 | 0.0 | 0.0 | 0.00 | 0.00 | 0.00 | 55 | 1011.9 |
| 20260503003711 | 51 | 234 | 0.0 | 0.0 | 0.00 | 0.00 | 0.00 | 54 | 1011.7 |
| 20260503003208 | 51 | 236 | 0.0 | 0.0 | 0.00 | 0.00 | 0.00 | 54 | 1011.7 |
| 20260503002705 | 52 | 235 | 0.0 | 0.0 | 0.00 | 0.00 | 0.00 | 52 | 1011.7 |
| 20260503002202 | 52 | 238 | 0.0 | 0.0 | 0.00 | 0.00 | 0.00 | 49 | 1011.7 |
| 20260503001657 | 53 | 237 | 0.0 | 0.0 | 0.00 | 0.00 | 0.00 | 46 | 1011.7 |
| 20260503001154 | 53 | 234 | 0.0 | 0.0 | 0.00 | 0.00 | 0.00 | 46 | 1011.8 |
| 20260503000652 | 54 | 237 | 0.0 | 0.0 | 0.00 | 0.00 | 0.00 | 46 | 1011.7 |
| 20260503000149 | 55 | 246 | 0.0 | 0.0 | 0.00 | 0.00 | 0.00 | 43 | 1011.7 |
| 20260502235646 | 54 | 271 | 1.0 | 1.0 | 0.00 | 0.00 | 0.00 | 42 | 1011.7 |
| 20260502235144 | 55 | 338 | 3.0 | 3.0 | 0.00 | 0.00 | 0.00 | 43 | 1011.4 |
| 20260502234639 | 55 | 296 | 2.0 | 3.0 | 0.00 | 0.00 | 0.00 | 42 | 1011.5 |
| 20260502234137 | 55 | 247 | 0.0 | 0.0 | 0.00 | 0.00 | 0.00 | 44 | 1011.5 |
| 20260502233633 | 56 | 240 | 1.0 | 1.0 | 0.00 | 0.00 | 0.00 | 44 | 1011.6 |
| 20260502233130 | 56 | 249 | 0.0 | 0.0 | 0.00 | 0.00 | 0.00 | 42 | 1011.6 |
| 20260502232625 | 56 | 243 | 2.0 | 2.0 | 0.00 | 0.00 | 0.00 | 42 | 1011.7 |
| 20260502232123 | 56 | 285 | 1.0 | 2.0 | 0.00 | 0.00 | 0.00 | 42 | 1011.4 |
| 20260502231620 | 56 | 254 | 2.0 | 2.0 | 0.00 | 0.00 | 0.00 | 41 | 1011.6 |
| 20260502231118 | 56 | 293 | 2.0 | 2.0 | 0.00 | 0.00 | 0.00 | 41 | 1011.4 |
| 20260502230616 | 57 | 248 | 0.0 | 0.0 | 0.00 | 0.00 | 0.00 | 42 | 1011.4 |
| 20260502230114 | 57 | 309 | 2.0 | 2.0 | 0.00 | 0.00 | 0.00 | 40 | 1011.4 |
| 20260502225609 | 57 | 235 | 0.0 | 1.0 | 0.00 | 0.00 | 0.00 | 41 | 1011.5 |
| 20260502225107 | 57 | 235 | 1.0 | 2.0 | 0.00 | 0.00 | 0.00 | 40 | 1011.3 |
| 20260502224603 | 57 | 248 | 1.0 | 1.0 | 0.00 | 0.00 | 0.00 | 39 | 1011.3 |
| 20260502224100 | 57 | 238 | 1.0 | 1.0 | 0.00 | 0.00 | 0.00 | 39 | 1011.4 |
| 20260502223557 | 57 | 317 | 2.0 | 2.0 | 0.00 | 0.00 | 0.00 | 39 | 1011.1 |
| 20260502223056 | 57 | 295 | 3.0 | 3.0 | 0.00 | 0.00 | 0.00 | 38 | 1011.3 |
| 20260502222553 | 58 | 284 | 3.0 | 3.0 | 0.00 | 0.00 | 0.00 | 39 | 1011.0 |
| 20260502222049 | 59 | 255 | 3.0 | 3.0 | 0.00 | 0.00 | 0.00 | 38 | 1011.2 |
| 20260502221545 | 60 | 305 | 5.0 | 6.0 | 0.00 | 0.00 | 0.00 | 37 | 1011.1 |
| 20260502221042 | 61 | 311 | 5.0 | 6.0 | 0.00 | 0.00 | 0.00 | 36 | 1011.1 |
| 20260502220538 | 60 | 231 | 1.0 | 1.0 | 0.00 | 0.00 | 0.00 | 36 | 1011.2 |
| 20260502220035 | 60 | 270 | 1.0 | 1.0 | 0.00 | 0.00 | 0.00 | 34 | 1011.1 |
| 20260502215532 | 59 | 285 | 0.0 | 1.0 | 0.00 | 0.00 | 0.00 | 37 | 1011.2 |
| 20260502215029 | 59 | 95 | 2.0 | 3.0 | 0.00 | 0.00 | 0.00 | 38 | 1011.3 |
| 20260502214526 | 59 | 283 | 1.0 | 1.0 | 0.00 | 0.00 | 0.00 | 37 | 1011.1 |
| 20260502214023 | 59 | 306 | 3.0 | 3.0 | 0.00 | 0.00 | 0.00 | 38 | 1011.1 |
| 20260502213520 | 59 | 60 | 2.0 | 3.0 | 0.00 | 0.00 | 0.00 | 40 | 1010.9 |
| 20260502213018 | 59 | 332 | 6.0 | 7.0 | 0.00 | 0.00 | 0.00 | 38 | 1011.2 |
| 20260502212516 | 59 | 325 | 3.0 | 5.0 | 0.00 | 0.00 | 0.00 | 40 | 1011.0 |
| 20260502212014 | 59 | 307 | 3.0 | 5.0 | 0.00 | 0.00 | 0.00 | 39 | 1010.9 |
| 20260502211509 | 59 | 229 | 1.0 | 2.0 | 0.00 | 0.00 | 0.00 | 39 | 1010.6 |
| 20260502211007 | 59 | 239 | 0.0 | 1.0 | 0.00 | 0.00 | 0.00 | 40 | 1010.8 |
| 20260502210503 | 59 | 301 | 3.0 | 5.0 | 0.00 | 0.00 | 0.00 | 38 | 1010.7 |
| 20260502210000 | 59 | 243 | 1.0 | 1.0 | 0.00 | 0.00 | 0.00 | 40 | 1010.9 |
| 20260502205456 | 59 | 334 | 3.0 | 3.0 | 0.00 | 0.00 | 0.00 | 39 | 1010.9 |
| 20260502204954 | 59 | 301 | 2.0 | 2.0 | 0.00 | 0.00 | 0.00 | 39 | 1010.8 |
| 20260502204450 | 60 | 72 | 1.0 | 2.0 | 0.00 | 0.00 | 0.00 | 43 | 1010.7 |